Theta_e
359 352 353 357 352 349 352 350 368 362 360 360 360 361 363 359 358 367 359 362 366 355
358 357 357 365 361 353 363 358 358 357 359 360 362 362 364 357 361 360 363 363 362 359
356 358 359 360 359 362 362 358 361 360 357 359 361 362 366 363 365 362 358 355 366 361
356 357 357 356 358 359 362 362 361 362 361 361 360 362 366 365 363 361 362 361 361 362
357 358 355 356 357 359 361 364 363 364 362 360 360 362 362 359 358 358 357 357 363 359
356 356 356 357 359 359 362 362 362 363 362 361 361 361 361 362 360 359 357 358 358 359
359 360 357 358 361 360 364 366 365 364 365 363 361 360 361 361 360 360 357 361 358 359
365 364 365 363 364 361 364 365 365 362 362 361 359 355 360 364 362 361 359 361 360 359
363 363 363 363 363 364 362 362 364 362 363 360 360 335 338 345 358 359 360 359 363 362
364 363 366 363 363 362 362 365 366 362 361 361 354 324 327 332 353 360 357 359 357 355
362 361 362 360 362 367 366 366 365 362 361 359 335 322 322 326 351 355 358 359 358 358
353 356 356 355 365 365 364 363 359 356 347 351 335 320 321 329 350 354 355 356 353 345
356 357 353 351 356 352 357 348 347 333 334 325 332 316 317 327 346 350 354 354 346 319
351 351 351 351 352 351 346 342 332 326 324 324 316 321 314 319 341 341 342 338 328 321
Wind_Speed
9 7 7 7 7 7 4 6 12 7 6 7 3 4 3 5 6 4 3 4 5 8
9 10 7 6 8 8 5 2 9 6 7 6 5 5 4 6 5 4 4 6 5 6
12 11 10 4 5 6 5 6 1 6 8 8 8 8 6 7 8 6 6 7 5 2
12 13 11 9 9 9 8 4 6 7 7 7 7 7 5 9 9 7 5 7 7 7
12 11 12 11 11 10 10 8 9 7 9 9 10 8 9 10 10 9 10 9 8 9
14 13 12 11 11 11 10 10 10 7 10 10 10 8 8 9 10 10 10 9 9 9
13 12 12 11 11 11 10 9 9 10 9 8 9 10 10 7 10 10 10 6 9 5
10 10 10 10 10 10 11 11 10 9 9 9 10 8 8 8 8 9 10 10 8 8
11 10 10 10 10 9 11 10 10 11 8 8 5 5 4 4 6 7 7 7 6 10
11 11 9 10 11 11 11 11 9 10 9 9 6 5 4 4 5 5 7 8 6 4
8 9 9 11 9 11 10 9 8 8 8 4 7 7 5 6 7 6 5 5 6 6
5 5 5 9 9 10 8 8 2 1 4 7 7 9 8 10 7 5 4 1 5 8
2 2 2 3 1 3 0 5 5 8 8 10 5 10 8 7 7 4 3 4 9 16
5 2 2 2 2 1 3 4 7 8 7 7 6 6 6 6 3 4 2 3 5 6
Wind_Direction
210 223 240 190 238 236 233 175 135 176 226 221 236 225 235 255 237 225 254 295 321 316
199 236 236 216 206 247 258 176 159 186 213 240 241 256 269 238 274 262 247 271 249 262
193 208 224 203 217 272 316 251 43 193 215 222 233 239 248 262 219 221 270 266 276 254
200 200 210 222 218 226 245 253 263 257 263 260 245 246 255 278 298 272 227 262 281 285
207 211 207 217 218 215 226 218 236 242 247 242 252 244 235 240 268 233 236 249 255 259
202 205 217 210 216 219 214 214 226 215 232 236 243 245 246 246 255 255 265 266 256 252
204 209 212 214 210 215 220 223 236 224 225 227 244 243 247 266 263 260 251 269 272 269
200 212 214 219 214 217 216 214 222 229 227 228 236 242 235 234 231 248 268 289 287 268
193 207 215 215 226 205 231 233 211 226 223 233 290 61 34 325 233 240 259 262 291 306
193 202 212 220 219 222 222 230 226 230 227 226 131 74 36 8 270 261 264 250 239 257
207 213 201 228 231 229 229 225 230 242 244 210 89 50 3 308 265 262 251 239 248 231
205 216 248 248 239 234 234 229 208 143 66 74 89 47 3 325 267 252 269 30 43 355
135 119 249 43 332 43 187 118 111 82 59 39 71 40 3 346 313 353 251 233 127 61
65 98 223 119 67 340 131 113 99 92 79 74 33 33 16 8 333 315 308 22 39 39